| time (UTC) | temp C | wind direction | speed KPH | gust KPH | rain 1hr cm | rain 24hr cm | rain mn cm | humidity % | barometer mb |
| 20260506213307 | 1 | 90 | 11.3 | 0.0 | 0.00 | 0.00 | 0.00 | 93 | 1012.0 |
| 20260506210307 | 2 | 260 | 8.0 | 0.0 | 0.00 | 0.00 | 0.00 | 86 | 1012.0 |
| 20260506203306 | 2 | 210 | 9.7 | 0.0 | 0.00 | 0.00 | 0.00 | 86 | 1012.0 |
| 20260506200306 | 2 | 140 | 9.7 | 0.0 | 0.00 | 0.00 | 0.00 | 93 | 1012.0 |
| 20260506193307 | 3 | 150 | 14.5 | 0.0 | 0.00 | 0.00 | 0.00 | 86 | 1012.0 |
| 20260506190306 | 2 | 100 | 11.3 | 0.0 | 0.00 | 0.00 | 0.00 | 93 | 1011.0 |
| 20260506183307 | 1 | 110 | 11.3 | 0.0 | 0.00 | 0.00 | 0.00 | 93 | 1012.0 |
| 20260506180307 | 1 | 230 | 11.3 | 0.0 | 0.00 | 0.00 | 0.00 | 93 | 1012.0 |
| 20260506173308 | 2 | 290 | 8.0 | 0.0 | 0.00 | 0.00 | 0.00 | 93 | 1012.0 |
| 20260506170307 | 2 | 300 | 16.1 | 0.0 | 0.00 | 0.00 | 0.00 | 86 | 1011.0 |
| 20260506163307 | 5 | 200 | 14.5 | 0.0 | 0.00 | 0.00 | 0.00 | 80 | 1011.0 |
| 20260506160307 | 5 | 200 | 14.5 | 0.0 | 0.00 | 0.00 | 0.00 | 80 | 1011.0 |
| 20260506153307 | 3 | 190 | 16.1 | 0.0 | 0.00 | 0.00 | 0.00 | 86 | 1011.0 |
| 20260506150307 | 3 | 200 | 16.1 | 0.0 | 0.00 | 0.00 | 0.00 | 86 | 1011.0 |
| 20260506143307 | 3 | 280 | 19.3 | 0.0 | 0.00 | 0.00 | 0.00 | 86 | 1011.0 |
| 20260506140307 | 5 | 280 | 9.7 | 0.0 | 0.00 | 0.00 | 0.00 | 80 | 1011.0 |
| 20260506133307 | 5 | 290 | 14.5 | 0.0 | 0.00 | 0.00 | 0.00 | 80 | 1010.0 |
| 20260506130308 | 3 | 200 | 12.9 | 0.0 | 0.00 | 0.00 | 0.00 | 86 | 1010.0 |
| 20260506123307 | 5 | 220 | 25.7 | 0.0 | 0.00 | 0.00 | 0.00 | 75 | 1010.0 |
| 20260506120308 | 5 | 230 | 27.4 | 0.0 | 0.00 | 0.00 | 0.00 | 80 | 1010.0 |
| 20260506113308 | 5 | 230 | 24.1 | 0.0 | 0.00 | 0.00 | 0.00 | 80 | 1010.0 |
| 20260506110307 | 5 | 220 | 25.7 | 0.0 | 0.00 | 0.00 | 0.00 | 75 | 1009.0 |
| 20260506103306 | 5 | 220 | 25.7 | 0.0 | 0.00 | 0.00 | 0.00 | 86 | 1009.0 |
| 20260506100308 | 5 | 230 | 22.5 | 0.0 | 0.00 | 0.00 | 0.00 | 86 | 1009.0 |
| 20260506093307 | 5 | 240 | 16.1 | 0.0 | 0.00 | 0.00 | 0.00 | 81 | 1009.0 |
| 20260506090307 | 5 | 240 | 16.1 | 0.0 | 0.00 | 0.00 | 0.00 | 80 | 1009.0 |
| 20260506083307 | 3 | 260 | 19.3 | 0.0 | 0.00 | 0.00 | 0.00 | 86 | 1008.0 |
| 20260506073307 | 3 | 250 | 19.3 | 0.0 | 0.00 | 0.00 | 0.00 | 86 | 1008.0 |
| 20260506070306 | 3 | 210 | 14.5 | 0.0 | 0.00 | 0.00 | 0.00 | 80 | 1008.0 |
| 20260506060306 | 3 | 260 | 20.9 | 0.0 | 0.00 | 0.00 | 0.00 | 80 | 1007.0 |
| 20260506050306 | 2 | 220 | 16.1 | 0.0 | 0.00 | 0.00 | 0.00 | 86 | 1007.0 |
| 20260506043307 | 2 | 260 | 16.1 | 0.0 | 0.00 | 0.00 | 0.00 | 86 | 1007.0 |
| 20260506040307 | 2 | 260 | 20.9 | 0.0 | 0.00 | 0.00 | 0.00 | 86 | 1007.0 |
| 20260506033307 | 3 | 250 | 19.3 | 0.0 | 0.00 | 0.00 | 0.00 | 80 | 1007.0 |
| 20260506030307 | 2 | 260 | 12.9 | 0.0 | 0.00 | 0.00 | 0.00 | 86 | 1007.0 |
| 20260506023306 | 2 | 310 | 12.9 | 0.0 | 0.00 | 0.00 | 0.00 | 80 | 1006.0 |
| 20260506020306 | 2 | 240 | 12.9 | 0.0 | 0.00 | 0.00 | 0.00 | 86 | 1006.0 |
| 20260506013307 | 2 | 250 | 19.3 | 0.0 | 0.00 | 0.00 | 0.00 | 86 | 1006.0 |
| 20260506010307 | 2 | 260 | 20.9 | 0.0 | 0.00 | 0.00 | 0.00 | 86 | 1006.0 |
| 20260506003306 | 1 | 70 | 19.3 | 0.0 | 0.00 | 0.00 | 0.00 | 93 | 1006.0 |
| 20260506000307 | 1 | 120 | 11.3 | 0.0 | 0.00 | 0.00 | 0.00 | 93 | 1005.0 |
| 20260505233307 | 0 | 0 | 4.8 | 0.0 | 0.00 | 0.00 | 0.00 | 93 | 1006.0 |
| 20260505230306 | 1 | 10 | 14.5 | 0.0 | 0.00 | 0.00 | 0.00 | 93 | 1006.0 |
| 20260505223306 | 1 | 170 | 11.3 | 0.0 | 0.00 | 0.00 | 0.00 | 93 | 1005.0 |
| 20260505220306 | 1 | 270 | 14.5 | 0.0 | 0.00 | 0.00 | 0.00 | 93 | 1005.0 |